This is the latest recevied weather packets stored in our database for station/object NB9X. If no packets are shown the sender has not sent any weather packets the latest 10 day(s).
| Time | Temp. | Humidity | Pressure | Rain* | Wind** | Luminosity | Snow |
|---|---|---|---|---|---|---|---|
| 1777667299 | 28.33° C | 100% | 1009.4 hPa | 3.81 mm | - | - | - |
| 1777666999 | 27.78° C | 100% | 1009.5 hPa | 3.81 mm | - | - | - |
| 1777666699 | 29.44° C | 100% | 1009.5 hPa | 3.81 mm | - | - | - |
| 1777666399 | 30° C | 100% | 1009.7 hPa | 3.81 mm | - | - | - |
| 1777666099 | 28.89° C | 100% | 1009.8 hPa | 3.81 mm | - | - | - |
| 1777665799 | 28.89° C | 100% | 1009.7 hPa | 3.81 mm | - | - | - |
| 1777665499 | 29.44° C | 100% | 1009.6 hPa | 3.81 mm | - | - | - |
| 1777665199 | 30° C | 100% | 1009.8 hPa | 3.81 mm | - | - | - |
| 1777664899 | 31.11° C | 100% | 1009.9 hPa | 3.81 mm | - | - | - |
| 1777664777 | 30.56° C | 100% | 1010.9 hPa | 0 mm | - | - | - |
| 1777664599 | 31.11° C | 100% | 1010 hPa | 0 mm | - | - | - |
| 1777664299 | 31.11° C | 100% | 1010.3 hPa | 0 mm | - | - | - |
| 1777663999 | 31.11° C | 100% | 1010.4 hPa | 0 mm | - | - | - |
| 1777663699 | 31.11° C | 100% | 1010.5 hPa | 0 mm | - | - | - |
| 1777663399 | 31.67° C | 100% | 1010.6 hPa | 0 mm | - | - | - |
| 1777663099 | 30.56° C | 100% | 1010.8 hPa | 0 mm | - | - | - |
| 1777662799 | 30° C | 100% | 1010.9 hPa | 0 mm | - | - | - |
| 1777662499 | 30.56° C | 100% | 1010.9 hPa | 0 mm | - | - | - |
| 1777662199 | 31.11° C | 100% | 1011 hPa | 0 mm | - | - | - |
| 1777661899 | 31.11° C | 100% | 1011.1 hPa | 0 mm | - | - | - |
| 1777661599 | 31.11° C | 100% | 1011.3 hPa | 0 mm | - | - | - |
| 1777661299 | 31.11° C | 100% | 1011.4 hPa | 0 mm | - | - | - |
| 1777660999 | 30° C | 100% | 1011.4 hPa | 0 mm | - | - | - |
| 1777660699 | 30.56° C | 100% | 1011.4 hPa | 0 mm | - | - | - |
| 1777660399 | 31.11° C | 100% | 1011.5 hPa | 0 mm | - | - | - |
* Rain latest hour (hover to see other rain measurements)
** Current wind speed in m/s (hover to see current wind gust speed)